Regional Weather Roundup
Issued by NWS Little Rock, AR

Home | Current Version | Previous Version | Text Only | Print | Product List | Glossary Off
Versions: 1 2 3 4 5 6 7 8 9 10 11 12 13 14 15 16 17 18 19 20 21 22 23 24 25 26 27 28 29 30 31 32 33 34 35 36 37 38 39 40 41 42 43 44 45 46 47

000
ASUS44 KLZK 220305
RWRLZK

WEATHER ROUNDUP FOR ARKANSAS
NATIONAL WEATHER SERVICE LITTLE ROCK AR
1000 PM CDT THU MAY 21 2015

NOTE: "FAIR" INDICATES FEW OR NO CLOUDS BELOW 12,000 FEET WITH NO
SIGNIFICANT WEATHER AND/OR OBSTRUCTIONS TO VISIBILITY.

ARZ001-003-010-029-220400-
NORTHWEST ARKANSAS

CITY           SKY/WX    TMP DP  RH WIND       PRES   REMARKS
FAYETTEVILLE   CLEAR     50  49  96 CALM      30.22R
FORT SMITH     CLEAR     60  52  74 E5        30.18R
HARRISON       CLEAR     49  47  93 W3        30.22R
BENTONVILLE    CLEAR     55  43  62 E5        30.21R
ROGERS         CLEAR     52  47  83 E3        30.22R
SILOAM SPGS    CLEAR     52  43  71 CALM      30.23R
HIGHFILL       CLEAR     52  47  83 CALM      30.21R
$$

ARZ004-005-016-220400-
NORTH CENTRAL ARKANSAS

CITY           SKY/WX    TMP DP  RH WIND       PRES   REMARKS
BATESVILLE     CLEAR     55  48  76 E6        30.21R
FLIPPIN        CLEAR     54  48  82 CALM      30.20R
MTN HOME       CLEAR     51  48  89 CALM      30.20S
$$

ARZ040-041-220400-
WEST CENTRAL ARKANSAS

CITY           SKY/WX    TMP DP  RH WIND       PRES   REMARKS
MENA           CLEAR     55  54  94 CALM      30.20R
MOUNT IDA      CLEAR     55  52  89 CALM      30.17R
$$

ARZ009-017-025-026-028-220400-
NORTHEAST ARKANSAS

CITY           SKY/WX    TMP DP  RH WIND       PRES   REMARKS
CORNING          N/A     54  50  87 SE7       30.23R
JONESBORO      CLEAR     50  49  96 NE6       30.22R
NEWPORT        CLEAR     56  51  83 E7        30.23R
WALNUT RIDGE   CLEAR     55  46  71 E7        30.22S
BLYTHEVILLE    CLEAR     51  49  92 NW5       30.23R
$$

ARZ022-023-033-042-044-220400-
CENTRAL ARKANSAS

CITY           SKY/WX    TMP DP  RH WIND       PRES   REMARKS
LITTLE ROCK    CLEAR     57  50  77 CALM      30.21R
N LITTLE ROCK  CLEAR     57  53  86 E5        30.21R
JACKSONVILLE   CLEAR     55  52  91 CALM      30.21R
SEARCY         CLEAR     55  51  86 E3        30.22
HOT SPRINGS    CLEAR     57  51  80 NE3       30.19R
RUSSELLVILLE   CLEAR     57  51  80 NE3       30.20R
CLINTON        FAIR      54  50  87 CALM      30.23R
$$

ARZ036-220400-
EAST ARKANSAS

CITY           SKY/WX    TMP DP  RH WIND       PRES   REMARKS
WEST MEMPHIS   CLEAR     51  48  89 CALM      30.21R
$$

ARZ050-053-066-070-073-220400-
SOUTHWEST ARKANSAS

CITY           SKY/WX    TMP DP  RH WIND       PRES   REMARKS
ARKADELPHIA    FAIR      59  57  92 CALM      30.20R
CAMDEN         PTCLDY    54  50  87 CALM      30.20R
TEXARKANA      CLEAR     57  55  93 CALM      30.18R
EL DORADO      PTCLDY    56  53  90 CALM      30.20R
DE QUEEN       MOCLDY    61  57  87 CALM      30.17R
$$

ARZ056-057-069-220400-
SOUTHEAST ARKANSAS

CITY           SKY/WX    TMP DP  RH WIND       PRES   REMARKS
PINE BLUFF     CLEAR     56  50  80 E6        30.21R
STUTTGART      CLEAR     55  46  71 E8        30.21R
MONTICELLO     PTCLDY    53  51  93 CALM      30.21R

$$




USA.gov is the U.S. government's official web portal to all federal, state and local government web resources and services.